Time,TemperatureF,DewpointF,PressureIn,WindDirection,WindDirectionDegrees,WindSpeedMPH,WindSpeedGustMPH,Humidity,HourlyPrecipIn,Conditions,Clouds,dailyrainin,SoftwareType,DateUTC
2013-02-04 00:02:00,16.5,9.4,29.90,WNW,300,12.0,18.0,73,0.00,,,0.00,Wunderground v.1.15,2013-02-04 05:02:00,
2013-02-04 00:05:00,16.4,9.3,29.89,NW,305,12.0,21.0,73,0.00,,,0.00,Wunderground v.1.15,2013-02-04 05:05:00,
2013-02-04 00:07:00,16.3,9.2,29.90,West,276,12.0,21.0,73,0.00,,,0.00,Wunderground v.1.15,2013-02-04 05:07:00,
2013-02-04 00:14:00,16.3,8.9,29.90,NE,43,13.0,29.0,72,0.00,,,0.00,Wunderground v.1.15,2013-02-04 05:14:00,
2013-02-04 00:20:00,16.1,8.7,29.90,NNW,329,14.0,14.0,72,0.00,,,0.00,Wunderground v.1.15,2013-02-04 05:20:00,
2013-02-04 00:26:00,16.0,8.6,29.89,WNW,301,14.0,14.0,72,0.00,,,0.00,Wunderground v.1.15,2013-02-04 05:26:00,
2013-02-04 00:31:00,16.0,8.6,29.89,NW,325,17.0,28.0,72,0.00,,,0.00,Wunderground v.1.15,2013-02-04 05:31:00,
2013-02-04 00:37:00,15.9,8.8,29.89,NW,308,17.0,28.0,73,0.00,,,0.00,Wunderground v.1.15,2013-02-04 05:37:00,
2013-02-04 00:44:00,15.8,8.7,29.89,West,271,17.0,21.0,73,0.00,,,0.00,Wunderground v.1.15,2013-02-04 05:44:00,
2013-02-04 00:50:00,15.8,8.7,29.89,West,276,17.0,18.0,73,0.00,,,0.00,Wunderground v.1.15,2013-02-04 05:50:00,
2013-02-04 00:55:00,15.7,8.6,29.88,West,264,18.0,24.0,73,0.00,,,0.00,Wunderground v.1.15,2013-02-04 05:55:00,
2013-02-04 01:02:00,15.6,8.5,29.88,WNW,282,19.0,19.0,73,0.00,,,0.00,Wunderground v.1.15,2013-02-04 06:02:00,
2013-02-04 01:07:00,15.6,8.2,29.88,WNW,291,19.0,26.0,72,0.00,,,0.00,Wunderground v.1.15,2013-02-04 06:07:00,
2013-02-04 01:13:00,15.5,8.1,29.88,WSW,252,18.0,32.0,72,0.00,,,0.00,Wunderground v.1.15,2013-02-04 06:13:00,
2013-02-04 01:19:00,15.5,8.4,29.89,SW,232,17.0,17.0,73,0.00,,,0.00,Wunderground v.1.15,2013-02-04 06:19:00,
2013-02-04 01:26:00,15.4,8.3,29.89,WNW,287,17.0,29.0,73,0.00,,,0.00,Wunderground v.1.15,2013-02-04 06:26:00,
2013-02-04 01:32:00,15.4,8.3,29.89,SE,129,17.0,17.0,73,0.00,,,0.00,Wunderground v.1.15,2013-02-04 06:32:00,
2013-02-04 01:37:00,15.4,8.3,29.89,South,190,16.0,35.0,73,0.00,,,0.00,Wunderground v.1.15,2013-02-04 06:37:00,
2013-02-04 01:43:00,15.4,8.3,29.88,North,1,17.0,22.0,73,0.00,,,0.00,Wunderground v.1.15,2013-02-04 06:43:00,
2013-02-04 01:50:00,15.2,8.1,29.90,WSW,250,16.0,16.0,73,0.00,,,0.00,Wunderground v.1.15,2013-02-04 06:50:00,
2013-02-04 01:56:00,15.3,8.2,29.90,SW,222,16.0,24.0,73,0.00,,,0.00,Wunderground v.1.15,2013-02-04 06:56:00,
2013-02-04 02:02:00,15.2,8.1,29.90,SW,226,16.0,20.0,73,0.00,,,0.00,Wunderground v.1.15,2013-02-04 07:02:00,
2013-02-04 02:07:00,15.2,8.1,29.91,WSW,242,15.0,21.0,73,0.00,,,0.00,Wunderground v.1.15,2013-02-04 07:07:00,
2013-02-04 02:13:00,15.1,8.3,29.91,WNW,284,15.0,24.0,74,0.00,,,0.00,Wunderground v.1.15,2013-02-04 07:13:00,
2013-02-04 02:20:00,15.1,8.0,29.90,WSW,249,15.0,17.0,73,0.00,,,0.00,Wunderground v.1.15,2013-02-04 07:20:00,
2013-02-04 02:25:00,15.1,8.3,29.90,West,271,17.0,23.0,74,0.00,,,0.00,Wunderground v.1.15,2013-02-04 07:25:00,
2013-02-04 02:31:00,15.0,7.9,29.91,WNW,283,16.0,20.0,73,0.00,,,0.00,Wunderground v.1.15,2013-02-04 07:31:00,
2013-02-04 02:37:00,15.0,7.9,29.91,South,183,16.0,20.0,73,0.00,,,0.00,Wunderground v.1.15,2013-02-04 07:37:00,
2013-02-04 02:43:00,14.9,8.1,29.91,West,276,14.0,15.0,74,0.00,,,0.00,Wunderground v.1.15,2013-02-04 07:43:00,
2013-02-04 02:50:00,14.9,7.8,29.91,WSW,256,16.0,19.0,73,0.00,,,0.00,Wunderground v.1.15,2013-02-04 07:50:00,
2013-02-04 02:55:00,14.8,7.7,29.92,West,278,15.0,19.0,73,0.00,,,0.00,Wunderground v.1.15,2013-02-04 07:55:00,
2013-02-04 03:01:00,14.8,7.7,29.92,NW,316,14.0,14.0,73,0.00,,,0.00,Wunderground v.1.15,2013-02-04 08:01:00,
2013-02-04 03:07:00,14.8,7.7,29.92,WNW,291,15.0,21.0,73,0.00,,,0.00,Wunderground v.1.15,2013-02-04 08:07:00,
2013-02-04 03:14:00,14.7,7.9,29.92,WNW,291,16.0,20.0,74,0.00,,,0.00,Wunderground v.1.15,2013-02-04 08:14:00,
2013-02-04 03:19:00,14.7,7.9,29.91,West,262,16.0,21.0,74,0.00,,,0.00,Wunderground v.1.15,2013-02-04 08:19:00,
2013-02-04 03:25:00,14.6,7.8,29.91,WNW,291,16.0,21.0,74,0.00,,,0.00,Wunderground v.1.15,2013-02-04 08:25:00,
2013-02-04 03:31:00,14.5,7.7,29.91,NW,304,14.0,15.0,74,0.00,,,0.00,Wunderground v.1.15,2013-02-04 08:31:00,
2013-02-04 03:38:00,14.5,7.7,29.92,WNW,298,16.0,20.0,74,0.00,,,0.00,Wunderground v.1.15,2013-02-04 08:38:00,
2013-02-04 03:43:00,14.5,7.7,29.91,West,280,15.0,20.0,74,0.00,,,0.00,Wunderground v.1.15,2013-02-04 08:43:00,
2013-02-04 03:49:00,14.6,7.5,29.92,WNW,296,15.0,15.0,73,0.00,,,0.00,Wunderground v.1.15,2013-02-04 08:49:00,
2013-02-04 03:56:00,14.6,7.5,29.92,WNW,300,15.0,15.0,73,0.00,,,0.00,Wunderground v.1.15,2013-02-04 08:56:00,
2013-02-04 04:02:00,14.6,7.5,29.92,WSW,253,15.0,15.0,73,0.00,,,0.00,Wunderground v.1.15,2013-02-04 09:02:00,
2013-02-04 04:07:00,14.6,7.5,29.92,West,273,15.0,24.0,73,0.00,,,0.00,Wunderground v.1.15,2013-02-04 09:07:00,
2013-02-04 04:13:00,14.5,7.4,29.92,West,270,14.0,16.0,73,0.00,,,0.00,Wunderground v.1.15,2013-02-04 09:13:00,
2013-02-04 04:20:00,14.6,7.2,29.93,SW,236,13.0,13.0,72,0.00,,,0.00,Wunderground v.1.15,2013-02-04 09:20:00,
2013-02-04 04:25:00,14.5,7.4,29.94,NNW,327,10.0,13.0,73,0.00,,,0.00,Wunderground v.1.15,2013-02-04 09:25:00,
2013-02-04 04:31:00,14.4,7.3,29.95,NE,40,6.0,9.0,73,0.00,,,0.00,Wunderground v.1.15,2013-02-04 09:31:00,
2013-02-04 04:37:00,14.3,7.5,29.95,West,276,5.0,9.0,74,0.00,,,0.00,Wunderground v.1.15,2013-02-04 09:37:00,
2013-02-04 04:44:00,14.3,7.5,29.95,West,271,5.0,9.0,74,0.00,,,0.00,Wunderground v.1.15,2013-02-04 09:44:00,
2013-02-04 04:49:00,14.3,7.5,29.95,WNW,283,6.0,12.0,74,0.00,,,0.00,Wunderground v.1.15,2013-02-04 09:49:00,
2013-02-04 04:55:00,14.3,7.2,29.95,WNW,301,7.0,12.0,73,0.00,,,0.00,Wunderground v.1.15,2013-02-04 09:55:00,
2013-02-04 05:01:00,14.3,7.2,29.95,SW,228,6.0,9.0,73,0.00,,,0.00,Wunderground v.1.15,2013-02-04 10:01:00,
2013-02-04 05:07:00,14.3,7.5,29.96,WNW,294,6.0,9.0,74,0.00,,,0.00,Wunderground v.1.15,2013-02-04 10:07:00,
2013-02-04 05:13:00,14.2,7.4,29.96,SSW,197,4.0,9.0,74,0.00,,,0.00,Wunderground v.1.15,2013-02-04 10:13:00,
2013-02-04 05:19:00,14.1,7.6,29.96,West,274,4.0,9.0,75,0.00,,,0.00,Wunderground v.1.15,2013-02-04 10:19:00,
2013-02-04 05:26:00,14.0,7.5,29.97,West,276,4.0,9.0,75,0.00,,,0.00,Wunderground v.1.15,2013-02-04 10:26:00,
2013-02-04 05:31:00,13.9,7.7,29.98,WNW,301,3.0,7.0,76,0.00,,,0.00,Wunderground v.1.15,2013-02-04 10:31:00,
2013-02-04 05:37:00,13.9,7.4,29.98,SSW,203,4.0,9.0,75,0.00,,,0.00,Wunderground v.1.15,2013-02-04 10:37:00,
2013-02-04 05:43:00,13.9,7.4,29.98,SW,233,5.0,9.0,75,0.00,,,0.00,Wunderground v.1.15,2013-02-04 10:43:00,
2013-02-04 05:50:00,14.0,7.5,29.99,West,273,4.0,9.0,75,0.00,,,0.00,Wunderground v.1.15,2013-02-04 10:50:00,
2013-02-04 05:55:00,14.0,7.5,29.99,NNW,330,5.0,9.0,75,0.00,,,0.00,Wunderground v.1.15,2013-02-04 10:55:00,
2013-02-04 06:01:00,14.0,7.5,29.99,West,264,5.0,9.0,75,0.00,,,0.00,Wunderground v.1.15,2013-02-04 11:01:00,
2013-02-04 06:08:00,14.1,7.3,30.00,West,267,5.0,9.0,74,0.00,,,0.00,Wunderground v.1.15,2013-02-04 11:08:00,
2013-02-04 06:13:00,14.3,7.2,30.00,West,266,5.0,9.0,73,0.00,,,0.00,Wunderground v.1.15,2013-02-04 11:13:00,
2013-02-04 06:19:00,14.2,7.1,30.00,WSW,253,5.0,9.0,73,0.00,,,0.00,Wunderground v.1.15,2013-02-04 11:19:00,
2013-02-04 06:25:00,14.3,7.2,30.01,WSW,247,5.0,9.0,73,0.00,,,0.00,Wunderground v.1.15,2013-02-04 11:25:00,
2013-02-04 06:32:00,14.2,7.4,30.01,SW,232,4.0,9.0,74,0.00,,,0.00,Wunderground v.1.15,2013-02-04 11:32:00,
2013-02-04 06:37:00,14.1,7.3,30.02,SSW,211,3.0,9.0,74,0.00,,,0.00,Wunderground v.1.15,2013-02-04 11:37:00,
2013-02-04 06:43:00,13.9,7.1,30.02,South,172,2.0,9.0,74,0.00,,,0.00,Wunderground v.1.15,2013-02-04 11:43:00,
2013-02-04 06:49:00,13.8,7.3,30.02,South,191,2.0,2.0,75,0.00,,,0.00,Wunderground v.1.15,2013-02-04 11:49:00,
2013-02-04 06:55:00,13.9,7.4,30.03,WSW,238,2.0,9.0,75,0.00,,,0.00,Wunderground v.1.15,2013-02-04 11:55:00,
2013-02-04 07:01:00,14.1,7.3,30.03,WSW,246,2.0,9.0,74,0.00,,,0.00,Wunderground v.1.15,2013-02-04 12:01:00,
2013-02-04 07:07:00,14.3,7.5,30.04,SW,232,3.0,9.0,74,0.00,,,0.00,Wunderground v.1.15,2013-02-04 12:07:00,
2013-02-04 07:14:00,14.4,7.6,30.04,WSW,246,3.0,9.0,74,0.00,,,0.00,Wunderground v.1.15,2013-02-04 12:14:00,
2013-02-04 07:19:00,14.4,7.3,30.04,WSW,237,3.0,3.0,73,0.00,,,0.00,Wunderground v.1.15,2013-02-04 12:19:00,
2013-02-04 07:25:00,14.5,7.4,30.03,SSW,193,3.0,9.0,73,0.00,,,0.00,Wunderground v.1.15,2013-02-04 12:25:00,
2013-02-04 07:31:00,14.5,7.4,30.04,SW,216,2.0,9.0,73,0.00,,,0.00,Wunderground v.1.15,2013-02-04 12:31:00,
2013-02-04 07:38:00,14.7,7.6,30.04,WSW,249,2.0,9.0,73,0.00,,,0.00,Wunderground v.1.15,2013-02-04 12:38:00,
2013-02-04 07:43:00,15.0,7.6,30.05,WSW,250,3.0,9.0,72,0.00,,,0.00,Wunderground v.1.15,2013-02-04 12:43:00,
2013-02-04 07:49:00,15.2,7.8,30.05,WSW,246,3.0,3.0,72,0.00,,,0.00,Wunderground v.1.15,2013-02-04 12:49:00,
2013-02-04 07:56:00,15.6,7.9,30.05,SSE,165,2.0,9.0,71,0.00,,,0.00,Wunderground v.1.15,2013-02-04 12:56:00,
2013-02-04 08:02:00,15.9,8.2,30.04,SSE,159,3.0,9.0,71,0.00,,,0.00,Wunderground v.1.15,2013-02-04 13:02:00,
2013-02-04 08:07:00,16.4,8.6,30.04,WSW,250,2.0,9.0,71,0.00,,,0.00,Wunderground v.1.15,2013-02-04 13:07:00,
2013-02-04 08:13:00,16.7,8.6,30.05,South,190,2.0,9.0,70,0.00,,,0.00,Wunderground v.1.15,2013-02-04 13:13:00,
2013-02-04 08:20:00,17.3,9.2,30.05,SSW,207,2.0,2.0,70,0.00,,,0.00,Wunderground v.1.15,2013-02-04 13:20:00,
2013-02-04 08:25:00,17.7,9.2,30.06,SSW,194,2.0,9.0,69,0.00,,,0.00,Wunderground v.1.15,2013-02-04 13:25:00,
2013-02-04 08:31:00,17.7,9.6,30.07,South,190,2.0,9.0,70,0.00,,,0.00,Wunderground v.1.15,2013-02-04 13:31:00,
2013-02-04 08:37:00,17.8,9.3,30.06,SSE,148,2.0,9.0,69,0.00,,,0.00,Wunderground v.1.15,2013-02-04 13:37:00,
2013-02-04 08:44:00,18.1,9.6,30.06,SW,228,3.0,9.0,69,0.00,,,0.00,Wunderground v.1.15,2013-02-04 13:44:00,
2013-02-04 08:49:00,17.8,9.0,30.07,SW,224,2.0,9.0,68,0.00,,,0.00,Wunderground v.1.15,2013-02-04 13:49:00,
2013-02-04 08:55:00,17.7,9.2,30.07,SSW,200,2.0,9.0,69,0.00,,,0.00,Wunderground v.1.15,2013-02-04 13:55:00,
2013-02-04 09:01:00,17.9,9.4,30.07,West,270,2.0,9.0,69,0.00,,,0.00,Wunderground v.1.15,2013-02-04 14:01:00,
2013-02-04 09:07:00,18.2,9.4,30.07,SW,233,2.0,9.0,68,0.00,,,0.00,Wunderground v.1.15,2013-02-04 14:07:00,
2013-02-04 09:13:00,18.4,9.3,30.07,WSW,252,3.0,9.0,67,0.00,,,0.00,Wunderground v.1.15,2013-02-04 14:13:00,
2013-02-04 09:19:00,18.5,9.4,30.07,WSW,245,2.0,2.0,67,0.00,,,0.00,Wunderground v.1.15,2013-02-04 14:19:00,
2013-02-04 09:26:00,18.8,9.6,30.07,WSW,245,2.0,9.0,67,0.00,,,0.00,Wunderground v.1.15,2013-02-04 14:26:00,
2013-02-04 09:31:00,19.0,9.8,30.07,WSW,239,2.0,9.0,67,0.00,,,0.00,Wunderground v.1.15,2013-02-04 14:31:00,
2013-02-04 09:37:00,19.4,10.2,30.06,West,264,1.0,9.0,67,0.00,,,0.00,Wunderground v.1.15,2013-02-04 14:37:00,
2013-02-04 09:43:00,19.3,9.8,30.06,NW,307,1.0,9.0,66,0.00,,,0.00,Wunderground v.1.15,2013-02-04 14:43:00,
2013-02-04 09:49:00,19.6,10.4,30.06,WSW,248,2.0,9.0,67,0.00,,,0.00,Wunderground v.1.15,2013-02-04 14:49:00,
2013-02-04 09:55:00,19.4,10.2,30.07,WNW,295,3.0,9.0,67,0.00,,,0.00,Wunderground v.1.15,2013-02-04 14:55:00,
2013-02-04 10:01:00,19.7,10.8,30.06,West,264,3.0,9.0,68,0.00,,,0.00,Wunderground v.1.15,2013-02-04 15:01:00,
2013-02-04 10:08:00,20.2,11.0,30.06,West,274,2.0,9.0,67,0.00,,,0.00,Wunderground v.1.15,2013-02-04 15:08:00,
2013-02-04 10:13:00,20.7,11.1,30.06,WSW,238,2.0,9.0,66,0.00,,,0.00,Wunderground v.1.15,2013-02-04 15:13:00,
2013-02-04 10:19:00,20.4,10.5,30.06,West,274,2.0,9.0,65,0.00,,,0.00,Wunderground v.1.15,2013-02-04 15:19:00,
2013-02-04 10:25:00,20.2,10.3,30.06,WSW,252,3.0,9.0,65,0.00,,,0.00,Wunderground v.1.15,2013-02-04 15:25:00,
2013-02-04 10:31:00,20.4,10.5,30.06,SW,232,2.0,9.0,65,0.00,,,0.00,Wunderground v.1.15,2013-02-04 15:31:00,
2013-02-04 10:37:00,20.5,11.3,30.06,WSW,239,2.0,9.0,67,0.00,,,0.00,Wunderground v.1.15,2013-02-04 15:37:00,
2013-02-04 10:43:00,21.1,11.5,30.07,SSW,201,2.0,9.0,66,0.00,,,0.00,Wunderground v.1.15,2013-02-04 15:43:00,
2013-02-04 10:49:00,21.3,11.4,30.06,WSW,245,3.0,3.0,65,0.00,,,0.00,Wunderground v.1.15,2013-02-04 15:49:00,
2013-02-04 10:56:00,21.2,10.9,30.06,West,266,4.0,9.0,64,0.00,,,0.00,Wunderground v.1.15,2013-02-04 15:56:00,
2013-02-04 11:01:00,21.3,11.4,30.06,WSW,241,3.0,9.0,65,0.00,,,0.00,Wunderground v.1.15,2013-02-04 16:01:00,
2013-02-04 11:07:00,21.6,11.6,30.06,WNW,284,4.0,9.0,65,0.00,,,0.00,Wunderground v.1.15,2013-02-04 16:07:00,
2013-02-04 11:13:00,21.8,11.8,30.06,NW,304,3.0,9.0,65,0.00,,,0.00,Wunderground v.1.15,2013-02-04 16:13:00,
2013-02-04 11:19:00,21.9,11.9,30.05,WSW,252,2.0,9.0,65,0.00,,,0.00,Wunderground v.1.15,2013-02-04 16:19:00,
2013-02-04 11:25:00,22.2,12.2,30.06,WSW,249,2.0,9.0,65,0.00,,,0.00,Wunderground v.1.15,2013-02-04 16:25:00,
2013-02-04 11:31:00,22.3,12.3,30.06,South,188,2.0,9.0,65,0.00,,,0.00,Wunderground v.1.15,2013-02-04 16:31:00,
2013-02-04 11:38:00,22.3,12.0,30.05,SSW,208,3.0,9.0,64,0.00,,,0.00,Wunderground v.1.15,2013-02-04 16:38:00,
2013-02-04 11:44:00,22.1,12.1,30.05,West,262,3.0,9.0,65,0.00,,,0.00,Wunderground v.1.15,2013-02-04 16:44:00,
2013-02-04 11:49:00,22.2,12.6,30.06,West,273,3.0,3.0,66,0.00,,,0.00,Wunderground v.1.15,2013-02-04 16:49:00,
2013-02-04 11:55:00,22.4,12.8,30.05,SSW,203,3.0,9.0,66,0.00,,,0.00,Wunderground v.1.15,2013-02-04 16:55:00,
2013-02-04 12:02:00,22.5,12.5,30.05,SW,224,3.0,9.0,65,0.00,,,0.00,Wunderground v.1.15,2013-02-04 17:02:00,
2013-02-04 12:07:00,22.7,12.7,30.05,SW,226,3.0,9.0,65,0.00,,,0.00,Wunderground v.1.15,2013-02-04 17:07:00,
2013-02-04 12:13:00,22.8,12.8,30.04,WSW,239,2.0,9.0,65,0.00,,,0.00,Wunderground v.1.15,2013-02-04 17:13:00,
2013-02-04 12:20:00,22.8,13.1,30.04,South,186,3.0,3.0,66,0.00,,,0.00,Wunderground v.1.15,2013-02-04 17:20:00,
2013-02-04 12:26:00,23.2,13.5,30.03,SSE,165,3.0,9.0,66,0.00,,,0.00,Wunderground v.1.15,2013-02-04 17:26:00,
2013-02-04 12:31:00,23.6,13.5,30.03,SW,231,2.0,6.0,65,0.00,,,0.00,Wunderground v.1.15,2013-02-04 17:31:00,
2013-02-04 12:37:00,23.8,14.4,30.03,West,259,2.0,9.0,67,0.00,,,0.00,Wunderground v.1.15,2013-02-04 17:37:00,
2013-02-04 12:44:00,23.6,13.5,30.03,WNW,283,3.0,9.0,65,0.00,,,0.00,Wunderground v.1.15,2013-02-04 17:44:00,
2013-02-04 12:49:00,23.9,14.2,30.02,WSW,255,3.0,9.0,66,0.00,,,0.00,Wunderground v.1.15,2013-02-04 17:49:00,
2013-02-04 12:55:00,24.1,14.7,30.02,WSW,252,3.0,9.0,67,0.00,,,0.00,Wunderground v.1.15,2013-02-04 17:55:00,
2013-02-04 13:02:00,24.4,14.7,30.02,ESE,110,3.0,9.0,66,0.00,,,0.00,Wunderground v.1.15,2013-02-04 18:02:00,
2013-02-04 13:08:00,24.6,14.9,30.01,WSW,255,3.0,9.0,66,0.00,,,0.00,Wunderground v.1.15,2013-02-04 18:08:00,
2013-02-04 13:14:00,24.5,14.8,30.02,West,260,4.0,9.0,66,0.00,,,0.00,Wunderground v.1.15,2013-02-04 18:14:00,
2013-02-04 13:19:00,24.3,14.6,30.01,WNW,291,4.0,4.0,66,0.00,,,0.00,Wunderground v.1.15,2013-02-04 18:19:00,
2013-02-04 13:25:00,24.4,14.7,30.01,WNW,283,4.0,9.0,66,0.00,,,0.00,Wunderground v.1.15,2013-02-04 18:25:00,
2013-02-04 13:32:00,24.7,15.3,30.01,WNW,287,4.0,5.0,67,0.00,,,0.00,Wunderground v.1.15,2013-02-04 18:32:00,
2013-02-04 13:38:00,24.8,15.4,30.00,SW,231,5.0,9.0,67,0.00,,,0.00,Wunderground v.1.15,2013-02-04 18:38:00,
2013-02-04 13:44:00,25.0,15.9,30.00,SW,217,5.0,9.0,68,0.00,,,0.00,Wunderground v.1.15,2013-02-04 18:44:00,
2013-02-04 13:49:00,25.4,16.6,30.00,SW,225,5.0,9.0,69,0.00,,,0.00,Wunderground v.1.15,2013-02-04 18:49:00,
2013-02-04 13:55:00,25.9,16.4,30.00,WSW,243,4.0,9.0,67,0.00,,,0.00,Wunderground v.1.15,2013-02-04 18:55:00,
2013-02-04 14:02:00,25.7,16.6,30.00,SW,235,5.0,9.0,68,0.00,,,0.00,Wunderground v.1.15,2013-02-04 19:02:00,
2013-02-04 14:07:00,25.8,16.7,29.99,West,260,4.0,9.0,68,0.00,,,0.00,Wunderground v.1.15,2013-02-04 19:07:00,
2013-02-04 14:13:00,25.9,17.1,29.99,SW,224,4.0,9.0,69,0.00,,,0.00,Wunderground v.1.15,2013-02-04 19:13:00,
2013-02-04 14:19:00,26.0,17.2,29.99,WSW,252,4.0,4.0,69,0.00,,,0.00,Wunderground v.1.15,2013-02-04 19:19:00,
2013-02-04 14:25:00,26.1,17.0,29.99,WNW,284,4.0,9.0,68,0.00,,,0.00,Wunderground v.1.15,2013-02-04 19:25:00,
2013-02-04 14:32:00,26.2,17.1,29.99,WSW,250,5.0,9.0,68,0.00,,,0.00,Wunderground v.1.15,2013-02-04 19:32:00,
2013-02-04 14:38:00,26.8,17.6,29.99,West,264,7.0,9.0,68,0.00,,,0.00,Wunderground v.1.15,2013-02-04 19:38:00,
2013-02-04 14:43:00,26.8,17.3,29.99,SW,215,6.0,9.0,67,0.00,,,0.00,Wunderground v.1.15,2013-02-04 19:43:00,
2013-02-04 14:49:00,26.9,17.4,29.99,WSW,243,5.0,9.0,67,0.00,,,0.00,Wunderground v.1.15,2013-02-04 19:49:00,
2013-02-04 14:55:00,26.8,17.3,29.99,SW,219,5.0,9.0,67,0.00,,,0.00,Wunderground v.1.15,2013-02-04 19:55:00,
2013-02-04 15:02:00,26.7,17.2,29.99,WSW,246,5.0,9.0,67,0.00,,,0.00,Wunderground v.1.15,2013-02-04 20:02:00,
2013-02-04 15:07:00,26.9,17.4,29.99,South,180,4.0,9.0,67,0.00,,,0.00,Wunderground v.1.15,2013-02-04 20:07:00,
2013-02-04 15:13:00,27.4,17.9,29.99,WNW,298,4.0,9.0,67,0.00,,,0.00,Wunderground v.1.15,2013-02-04 20:13:00,
2013-02-04 15:20:00,27.8,17.9,29.99,SSW,213,4.0,4.0,66,0.00,,,0.00,Wunderground v.1.15,2013-02-04 20:20:00,
2013-02-04 15:26:00,28.0,18.1,29.99,SW,236,4.0,12.0,66,0.00,,,0.00,Wunderground v.1.15,2013-02-04 20:26:00,
2013-02-04 15:31:00,27.9,18.0,29.99,WSW,240,5.0,9.0,66,0.00,,,0.00,Wunderground v.1.15,2013-02-04 20:31:00,
2013-02-04 15:37:00,27.9,18.4,29.98,WSW,249,5.0,12.0,67,0.00,,,0.00,Wunderground v.1.15,2013-02-04 20:37:00,
2013-02-04 15:43:00,28.0,18.8,29.98,SSE,163,6.0,9.0,68,0.00,,,0.00,Wunderground v.1.15,2013-02-04 20:43:00,
2013-02-04 15:49:00,28.2,19.0,29.98,WSW,253,7.0,11.0,68,0.00,,,0.00,Wunderground v.1.15,2013-02-04 20:49:00,
2013-02-04 15:55:00,28.1,18.9,29.98,WSW,253,7.0,11.0,68,0.00,,,0.00,Wunderground v.1.15,2013-02-04 20:55:00,
2013-02-04 16:02:00,28.2,19.0,29.98,WSW,249,6.0,10.0,68,0.00,,,0.00,Wunderground v.1.15,2013-02-04 21:02:00,
2013-02-04 16:07:00,28.2,18.6,29.98,SW,218,7.0,13.0,67,0.00,,,0.00,Wunderground v.1.15,2013-02-04 21:07:00,
2013-02-04 16:13:00,28.0,18.5,29.98,SW,225,6.0,9.0,67,0.00,,,0.00,Wunderground v.1.15,2013-02-04 21:13:00,
2013-02-04 16:19:00,27.9,18.4,29.97,SSW,194,5.0,5.0,67,0.00,,,0.00,Wunderground v.1.15,2013-02-04 21:19:00,
2013-02-04 16:25:00,28.0,18.5,29.97,SSW,212,5.0,9.0,67,0.00,,,0.00,Wunderground v.1.15,2013-02-04 21:25:00,
2013-02-04 16:31:00,28.0,18.5,29.97,South,177,7.0,12.0,67,0.00,,,0.00,Wunderground v.1.15,2013-02-04 21:31:00,
2013-02-04 16:37:00,28.0,18.5,29.97,SW,225,7.0,12.0,67,0.00,,,0.00,Wunderground v.1.15,2013-02-04 21:37:00,
2013-02-04 16:44:00,27.8,18.3,29.97,SW,235,7.0,10.0,67,0.00,,,0.00,Wunderground v.1.15,2013-02-04 21:44:00,
2013-02-04 16:49:00,27.8,18.6,29.97,West,267,6.0,6.0,68,0.00,,,0.00,Wunderground v.1.15,2013-02-04 21:49:00,
2013-02-04 16:56:00,28.1,18.9,29.97,WSW,252,8.0,10.0,68,0.00,,,0.00,Wunderground v.1.15,2013-02-04 21:56:00,
2013-02-04 17:01:00,27.9,18.7,29.96,SW,235,7.0,16.0,68,0.00,,,0.00,Wunderground v.1.15,2013-02-04 22:01:00,
2013-02-04 17:08:00,28.0,18.8,29.96,WSW,246,9.0,16.0,68,0.00,,,0.00,Wunderground v.1.15,2013-02-04 22:08:00,
2013-02-04 17:13:00,28.1,18.9,29.96,West,262,9.0,16.0,68,0.00,,,0.00,Wunderground v.1.15,2013-02-04 22:13:00,
2013-02-04 17:19:00,28.1,18.9,29.97,NNE,12,9.0,9.0,68,0.00,,,0.00,Wunderground v.1.15,2013-02-04 22:19:00,
2013-02-04 17:26:00,28.1,18.9,29.96,West,263,9.0,9.0,68,0.00,,,0.00,Wunderground v.1.15,2013-02-04 22:26:00,
2013-02-04 17:31:00,28.3,19.1,29.96,WNW,285,10.0,10.0,68,0.00,,,0.00,Wunderground v.1.15,2013-02-04 22:31:00,
2013-02-04 17:37:00,28.6,19.7,29.96,SW,233,10.0,14.0,69,0.00,,,0.00,Wunderground v.1.15,2013-02-04 22:37:00,
2013-02-04 17:43:00,28.6,19.4,29.97,West,270,10.0,10.0,68,0.00,,,0.00,Wunderground v.1.15,2013-02-04 22:43:00,
2013-02-04 17:49:00,28.6,19.7,29.96,WSW,242,9.0,13.0,69,0.00,,,0.00,Wunderground v.1.15,2013-02-04 22:49:00,
2013-02-04 17:56:00,28.3,19.1,29.96,WSW,255,9.0,16.0,68,0.00,,,0.00,Wunderground v.1.15,2013-02-04 22:56:00,
2013-02-04 18:02:00,28.2,19.3,29.97,West,264,8.0,10.0,69,0.00,,,0.00,Wunderground v.1.15,2013-02-04 23:02:00,
2013-02-04 18:07:00,28.3,19.4,29.97,West,277,8.0,10.0,69,0.00,,,0.00,Wunderground v.1.15,2013-02-04 23:07:00,
2013-02-04 18:13:00,28.4,19.5,29.97,West,272,7.0,9.0,69,0.00,,,0.00,Wunderground v.1.15,2013-02-04 23:13:00,
2013-02-04 18:20:00,28.6,19.4,29.97,WSW,256,7.0,9.0,68,0.00,,,0.00,Wunderground v.1.15,2013-02-04 23:20:00,
2013-02-04 18:25:00,28.8,19.6,29.97,WSW,252,7.0,14.0,68,0.00,,,0.00,Wunderground v.1.15,2013-02-04 23:25:00,
2013-02-04 18:31:00,28.6,19.4,29.98,WSW,246,7.0,15.0,68,0.00,,,0.00,Wunderground v.1.15,2013-02-04 23:31:00,
2013-02-04 18:38:00,28.5,19.3,29.98,WSW,238,8.0,15.0,68,0.00,,,0.00,Wunderground v.1.15,2013-02-04 23:38:00,
2013-02-04 18:44:00,28.4,19.2,29.98,WSW,246,9.0,17.0,68,0.00,,,0.00,Wunderground v.1.15,2013-02-04 23:44:00,
2013-02-04 18:49:00,28.3,19.4,29.98,SW,235,10.0,10.0,69,0.00,,,0.00,Wunderground v.1.15,2013-02-04 23:49:00,
2013-02-04 18:55:00,28.3,19.4,29.98,SW,219,9.0,10.0,69,0.00,,,0.00,Wunderground v.1.15,2013-02-04 23:55:00,
2013-02-04 19:01:00,28.2,19.7,29.98,WSW,238,9.0,12.0,70,0.00,,,0.00,Wunderground v.1.15,2013-02-05 00:01:00,
2013-02-04 19:08:00,28.3,19.8,29.98,SSE,163,9.0,14.0,70,0.00,,,0.00,Wunderground v.1.15,2013-02-05 00:08:00,
2013-02-04 19:14:00,28.3,19.8,29.98,WSW,256,9.0,14.0,70,0.00,,,0.00,Wunderground v.1.15,2013-02-05 00:14:00,
2013-02-04 19:19:00,28.6,20.1,29.97,WSW,246,8.0,11.0,70,0.00,,,0.00,Wunderground v.1.15,2013-02-05 00:19:00,
2013-02-04 19:25:00,28.8,20.6,29.97,West,267,8.0,11.0,71,0.00,,,0.00,Wunderground v.1.15,2013-02-05 00:25:00,
2013-02-04 19:32:00,29.3,20.7,29.98,West,260,9.0,13.0,70,0.00,,,0.00,Wunderground v.1.15,2013-02-05 00:32:00,
2013-02-04 19:37:00,29.4,20.5,29.97,West,267,10.0,13.0,69,0.00,,,0.00,Wunderground v.1.15,2013-02-05 00:37:00,
2013-02-04 19:43:00,29.7,20.8,29.97,West,259,11.0,20.0,69,0.00,,,0.00,Wunderground v.1.15,2013-02-05 00:43:00,
2013-02-04 19:49:00,29.7,20.8,29.97,SSW,201,10.0,12.0,69,0.00,,,0.00,Wunderground v.1.15,2013-02-05 00:49:00,
2013-02-04 19:56:00,29.7,21.1,29.97,SSW,211,9.0,12.0,70,0.00,,,0.00,Wunderground v.1.15,2013-02-05 00:56:00,
2013-02-04 20:02:00,29.8,21.2,29.97,SW,217,9.0,12.0,70,0.00,,,0.00,Wunderground v.1.15,2013-02-05 01:02:00,
2013-02-04 20:07:00,29.9,21.3,29.97,WSW,238,10.0,13.0,70,0.00,,,0.00,Wunderground v.1.15,2013-02-05 01:07:00,
2013-02-04 20:13:00,30.3,21.7,29.96,NE,54,11.0,16.0,70,0.00,,,0.00,Wunderground v.1.15,2013-02-05 01:13:00,
2013-02-04 20:20:00,30.8,22.5,29.95,WSW,247,13.0,13.0,71,0.00,,,0.00,Wunderground v.1.15,2013-02-05 01:20:00,
2013-02-04 20:26:00,30.8,23.8,29.95,WSW,242,13.0,14.0,75,0.00,,,0.00,Wunderground v.1.15,2013-02-05 01:26:00,
2013-02-04 20:31:00,30.8,24.1,29.94,West,269,13.0,13.0,76,0.00,,,0.00,Wunderground v.1.15,2013-02-05 01:31:00,
2013-02-04 20:38:00,31.2,25.1,29.95,WSW,245,13.0,19.0,78,0.00,,,0.00,Wunderground v.1.15,2013-02-05 01:38:00,
2013-02-04 20:43:00,31.6,25.8,29.95,West,260,14.0,26.0,79,0.00,,,0.00,Wunderground v.1.15,2013-02-05 01:43:00,
2013-02-04 20:49:00,31.7,25.6,29.95,SW,229,13.0,13.0,78,0.00,,,0.00,Wunderground v.1.15,2013-02-05 01:49:00,
2013-02-04 20:55:00,32.0,25.6,29.95,SW,236,12.0,15.0,77,0.00,,,0.00,Wunderground v.1.15,2013-02-05 01:55:00,
2013-02-04 21:02:00,32.0,25.6,29.95,WSW,238,12.0,17.0,77,0.00,,,0.00,Wunderground v.1.15,2013-02-05 02:02:00,
2013-02-04 21:08:00,31.9,24.6,29.96,SSW,199,11.0,17.0,74,0.00,,,0.00,Wunderground v.1.15,2013-02-05 02:08:00,
2013-02-04 21:14:00,31.5,22.8,29.96,WSW,256,10.0,16.0,70,0.00,,,0.00,Wunderground v.1.15,2013-02-05 02:14:00,
2013-02-04 21:20:00,31.6,22.6,29.95,West,260,10.0,13.0,69,0.00,,,0.00,Wunderground v.1.15,2013-02-05 02:20:00,
2013-02-04 21:26:00,32.4,23.7,29.94,West,266,13.0,13.0,70,0.00,,,0.00,Wunderground v.1.15,2013-02-05 02:26:00,
2013-02-04 21:32:00,32.5,23.5,29.95,SW,222,13.0,20.0,69,0.00,,,0.00,Wunderground v.1.15,2013-02-05 02:32:00,
2013-02-04 21:42:00,32.9,25.2,29.93,WSW,258,15.0,32.0,73,0.00,,,0.00,Wunderground v.1.15,2013-02-05 02:42:00,
2013-02-04 21:48:00,33.2,25.8,29.94,WSW,252,16.0,32.0,74,0.00,,,0.00,Wunderground v.1.15,2013-02-05 02:48:00,
2013-02-04 21:58:00,33.1,25.4,29.93,West,267,16.0,26.0,73,0.00,,,0.00,Wunderground v.1.15,2013-02-05 02:58:00,
2013-02-04 22:06:00,32.7,25.0,29.94,SW,217,15.0,19.0,73,0.00,,,0.00,Wunderground v.1.15,2013-02-05 03:06:00,
2013-02-04 22:22:00,32.4,26.3,29.92,NW,314,13.0,13.0,78,0.00,,,0.00,Wunderground v.1.15,2013-02-05 03:22:00,
2013-02-04 22:32:00,32.4,26.9,29.92,WSW,254,15.0,24.0,80,0.00,,,0.00,Wunderground v.1.15,2013-02-05 03:32:00,
2013-02-04 22:40:00,32.0,28.0,29.92,West,273,15.0,23.0,85,0.00,,,0.00,Wunderground v.1.15,2013-02-05 03:40:00,
2013-02-04 22:45:00,31.9,28.8,29.92,WSW,252,17.0,23.0,88,0.00,,,0.00,Wunderground v.1.15,2013-02-05 03:45:00,
2013-02-04 22:52:00,31.6,28.7,29.91,SSW,200,17.0,18.0,89,0.00,,,0.00,Wunderground v.1.15,2013-02-05 03:52:00,
2013-02-04 22:58:00,31.4,28.8,29.92,West,262,18.0,23.0,90,0.00,,,0.00,Wunderground v.1.15,2013-02-05 03:58:00,
2013-02-04 23:03:00,31.4,28.8,29.92,WSW,248,16.0,21.0,90,0.00,,,0.00,Wunderground v.1.15,2013-02-05 04:03:00,
2013-02-04 23:09:00,31.4,29.1,29.91,WSW,252,16.0,20.0,91,0.00,,,0.00,Wunderground v.1.15,2013-02-05 04:09:00,
2013-02-04 23:16:00,31.5,29.2,29.91,SW,235,17.0,20.0,91,0.00,,,0.00,Wunderground v.1.15,2013-02-05 04:16:00,
2013-02-04 23:21:00,31.7,29.4,29.90,WSW,257,18.0,19.0,91,0.00,,,0.00,Wunderground v.1.15,2013-02-05 04:21:00,
2013-02-04 23:27:00,31.6,29.3,29.90,West,269,18.0,24.0,91,0.00,,,0.00,Wunderground v.1.15,2013-02-05 04:27:00,
2013-02-04 23:34:00,31.9,29.6,29.90,WSW,250,18.0,32.0,91,0.00,,,0.00,Wunderground v.1.15,2013-02-05 04:34:00,
2013-02-04 23:40:00,31.8,29.2,29.90,West,259,18.0,18.0,90,0.00,,,0.00,Wunderground v.1.15,2013-02-05 04:40:00,
2013-02-04 23:45:00,31.8,29.2,29.91,SSW,194,16.0,22.0,90,0.00,,,0.00,Wunderground v.1.15,2013-02-05 04:45:00,
2013-02-04 23:51:00,31.6,28.7,29.91,West,260,14.0,19.0,89,0.00,,,0.00,Wunderground v.1.15,2013-02-05 04:51:00,
2013-02-04 23:57:00,31.6,28.5,29.92,SW,233,13.0,20.0,88,0.00,,,0.00,Wunderground v.1.15,2013-02-05 04:57:00,